Flag for Venezuela Weather past 2 weeks in Cumaná, Venezuela

Now
77 °F

Passing clouds.


Feels Like: 78 °F
Forecast: 80 / 89 °F
Wind: N/A

Location: Margarita / Del Carib

Current Time: May 23, 2015 at 2:03:20 AM

Latest Report: May 23, 2015 at 1:30 AM


Visibility: N/A

Pressure: 29.95 "Hg

Humidity: 94%

Dew point: 75 °F

Location of CumanáLocation

Historic Weather in Cumaná — Graph

°F

Cumaná temperature yesterday

Maximum temperature yesterday: 90 °F (at 11:30 AM)
Minimum temperature yesterday: 75 °F (at 4:30 AM)
Average temperature yesterday: 81 °F

Past Weeks' High & Low Weather Summary

 TemperatureHumidityPressure
High91 °F (May 9, 3:30 PM)100% (May 22, 4:30 AM)30.01 "Hg (May 22, 4:30 AM)
Low75 °F (May 8, 12:30 AM)41% (May 16, 2:30 PM)29.83 "Hg (May 20, 4:30 PM)
Average81 °F79%29.94 "Hg
* Reported May 8 12:30 AM — May 23 12:30 AM, Cumaná, Weather by CustomWeather, © 2015

Note: Actual official high and low records may vary slightly from our data, if they occured in-between our weather recording intervals... More about our weather records

Advertising

Cumaná weather history for previous 24 hours

 ConditionsComfort  
Time TempWeatherWind HumidityBarometerVisibility
12:30 AM
Sat, May 23
77 °FPassing clouds.N/A94%29.95 "HgN/A
11:30 PM
Fri, May 22
77 °FPassing clouds.N/A94%29.98 "HgN/A
10:30 PM77 °FPassing clouds.N/A94%29.98 "HgN/A
9:30 PM77 °FPassing clouds.N/A89%29.98 "HgN/A
8:30 PM79 °FPassing clouds.N/A84%29.98 "HgN/A
7:30 PM79 °FPassing clouds.N/A84%29.95 "HgN/A
6:30 PM81 °FPassing clouds.N/A79%29.92 "HgN/A
5:30 PM82 °FScattered clouds.N/A79%29.92 "HgN/A
4:30 PM84 °FScattered clouds.N/A70%29.92 "HgN/A
3:30 PM88 °FScattered clouds.N/A59%29.92 "HgN/A
2:30 PM88 °FScattered clouds.N/A59%29.95 "HgN/A
1:30 PM90 °FScattered clouds.N/A52%29.98 "HgN/A
12:30 PM88 °FScattered clouds.N/A55%29.98 "HgN/A
11:30 AM90 °FScattered clouds.N/A55%29.98 "HgN/A
10:30 AM86 °FScattered clouds.N/A70%30.01 "HgN/A
9:30 AM84 °FScattered clouds.N/A70%30.01 "HgN/A
8:30 AM82 °FScattered clouds.N/A79%30.01 "HgN/A
7:30 AM81 °FScattered clouds.N/A89%29.98 "HgN/A
6:30 AM79 °FScattered clouds.N/A84%29.98 "HgN/A
4:30 AM75 °FPassing clouds.N/A100%29.92 "HgN/A
3:30 AM77 °FPassing clouds.N/A94%29.92 "HgN/A
2:30 AM77 °FPassing clouds.N/A94%29.92 "HgN/A
Weather by CustomWeather, © 2015

See weather overviewHow to use our weather pages